When you browse on this site, cookies collect data to enhance your experience and personalize the content and advertising you see.
Visit our Privacy Policy to learn more. By continuing to use the site, you agree to this use of cookies and data.
  • In Spain
  • List of Countries
  • For 7 days
  • Water Temperature
  • Weather Map
  • Weather Widgets
  • user-avatar
    Login

    Hourly Weather Kruzhyky

    Today, 21 September, Saturday

    Time Temperature Precipitation Wind Pressure Humidity
    00:00 +5°C° 0 mm 2 mps 744 mmHg 86%
    01:00 +5°C° 0 mm 2 mps 744 mmHg 86%
    02:00 +6°C° 0 mm 1 mps 744 mmHg 86%
    03:00 +4°C° 0 mm 2 mps 744 mmHg 87%
    04:00 +4°C° 0 mm 2 mps 744 mmHg 87%
    05:00 +4°C° 0 mm 2 mps 744 mmHg 87%
    06:00 +5°C° 0 mm 2 mps 744 mmHg 84%
    07:00 +7°C° 0 mm 2 mps 744 mmHg 80%
    08:00 +8°C° 0 mm 3 mps 744 mmHg 77%
    09:00 +10°C° 0 mm 3 mps 744 mmHg 70%
    10:00 +12°C° 0 mm 4 mps 744 mmHg 63%
    11:00 +14°C° 0 mm 5 mps 744 mmHg 56%
    12:00 +14°C° 0 mm 5 mps 744 mmHg 56%
    13:00 +14°C° 0 mm 5 mps 743 mmHg 55%
    14:00 +15°C° 0 mm 5 mps 743 mmHg 54%
    15:00 +15°C° 0 mm 4 mps 743 mmHg 55%
    16:00 +15°C° 0 mm 4 mps 742 mmHg 56%
    17:00 +16°C° 0 mm 3 mps 742 mmHg 57%
    18:00 +14°C° 0 mm 3 mps 742 mmHg 61%
    19:00 +12°C° 0 mm 3 mps 742 mmHg 64%
    20:00 +10°C° 0 mm 3 mps 742 mmHg 68%
    21:00 +10°C° 0 mm 3 mps 742 mmHg 67%
    22:00 +9°C° 0 mm 3 mps 742 mmHg 66%
    23:00 +9°C° 0 mm 3 mps 742 mmHg 65%

    Tomorrow, 22 September, Sunday

    Time Temperature Precipitation Wind Pressure Humidity
    00:00 +9°C° 0 mm 3 mps 742 mmHg 65%
    01:00 +9°C° 0 mm 3 mps 742 mmHg 64%
    02:00 +9°C° 0 mm 3 mps 742 mmHg 63%
    03:00 +9°C° 0 mm 3 mps 741 mmHg 63%
    04:00 +8°C° 0 mm 3 mps 741 mmHg 64%
    05:00 +8°C° 0 mm 3 mps 741 mmHg 64%
    06:00 +9°C° 0 mm 3 mps 741 mmHg 63%
    07:00 +10°C° 0 mm 3 mps 741 mmHg 62%
    08:00 +12°C° 0 mm 2 mps 741 mmHg 61%
    09:00 +13°C° 0 mm 3 mps 741 mmHg 55%
    10:00 +17°C° 0 mm 3 mps 741 mmHg 50%
    11:00 +19°C° 0 mm 3 mps 740 mmHg 45%
    12:00 +20°C° 0 mm 3 mps 740 mmHg 43%
    13:00 +21°C° 0 mm 3 mps 740 mmHg 42%
    14:00 +21°C° 0 mm 2 mps 739 mmHg 40%
    15:00 +21°C° 0 mm 2 mps 739 mmHg 44%
    16:00 +20°C° 0 mm 2 mps 738 mmHg 49%
    17:00 +21°C° 0 mm 1 mps 738 mmHg 53%
    18:00 +18°C° 0 mm 1 mps 738 mmHg 59%
    19:00 +15°C° 0 mm 1 mps 738 mmHg 66%
    20:00 +13°C° 0 mm 1 mps 738 mmHg 72%
    21:00 +12°C° 0 mm 1 mps 738 mmHg 73%
    22:00 +11°C° 0 mm 1 mps 738 mmHg 73%
    23:00 +11°C° 0 mm 1 mps 738 mmHg 73%

    Day after tomorrow, 23 September, Monday

    Time Temperature Precipitation Wind Pressure Humidity
    00:00 +11°C° 0 mm 1 mps 738 mmHg 73%
    01:00 +10°C° 0 mm 1 mps 737 mmHg 73%
    02:00 +10°C° 0 mm 1 mps 737 mmHg 73%
    03:00 +10°C° 0 mm 1 mps 737 mmHg 73%
    04:00 +9°C° 0 mm 1 mps 737 mmHg 74%
    05:00 +9°C° 0 mm 1 mps 737 mmHg 74%
    06:00 +10°C° 0 mm 1 mps 737 mmHg 70%
    07:00 +12°C° 0 mm 1 mps 737 mmHg 67%
    08:00 +13°C° 0 mm 1 mps 737 mmHg 63%
    09:00 +15°C° 0 mm 2 mps 737 mmHg 57%
    10:00 +18°C° 0 mm 2 mps 737 mmHg 50%
    11:00 +20°C° 0 mm 2 mps 737 mmHg 44%
    12:00 +21°C° 0 mm 2 mps 737 mmHg 42%
    13:00 +23°C° 0 mm 2 mps 737 mmHg 40%
    14:00 +24°C° 0 mm 2 mps 736 mmHg 38%
    15:00 +23°C° 0 mm 2 mps 736 mmHg 42%
    16:00 +21°C° 0 mm 2 mps 736 mmHg 47%
    17:00 +21°C° 0 mm 2 mps 736 mmHg 52%
    18:00 +19°C° 0 mm 2 mps 736 mmHg 58%
    19:00 +16°C° 0 mm 2 mps 736 mmHg 65%
    20:00 +14°C° 0 mm 2 mps 736 mmHg 72%
    21:00 +13°C° 0 mm 1 mps 736 mmHg 75%
    22:00 +13°C° 0 mm 1 mps 736 mmHg 78%
    23:00 +12°C° 0 mm 1 mps 736 mmHg 82%

    24 September, Tuesday

    Time Temperature Precipitation Wind Pressure Humidity
    00:00 +12°C° 0 mm 1 mps 736 mmHg 83%
    01:00 +11°C° 0 mm 1 mps 736 mmHg 85%
    02:00 +11°C° 0 mm 1 mps 736 mmHg 86%
    03:00 +10°C° 0 mm 1 mps 736 mmHg 87%
    04:00 +10°C° 0 mm 1 mps 736 mmHg 88%
    05:00 +10°C° 0 mm 1 mps 735 mmHg 89%
    06:00 +11°C° 0 mm 1 mps 735 mmHg 86%
    07:00 +12°C° 0 mm 1 mps 735 mmHg 82%
    08:00 +13°C° 0 mm 1 mps 735 mmHg 79%
    09:00 +15°C° 0 mm 2 mps 735 mmHg 71%
    10:00 +17°C° 0 mm 2 mps 735 mmHg 63%
    11:00 +20°C° 0 mm 3 mps 735 mmHg 55%
    12:00 +20°C° 0 mm 3 mps 735 mmHg 52%
    13:00 +21°C° 0 mm 4 mps 735 mmHg 49%
    14:00 +22°C° 0 mm 4 mps 734 mmHg 47%
    15:00 +22°C° 0 mm 4 mps 734 mmHg 50%
    16:00 +21°C° 0 mm 3 mps 734 mmHg 52%
    17:00 +21°C° 0 mm 3 mps 733 mmHg 55%
    18:00 +18°C° 0 mm 2 mps 733 mmHg 61%
    19:00 +16°C° 0 mm 2 mps 733 mmHg 67%
    20:00 +14°C° 0 mm 2 mps 733 mmHg 72%
    21:00 +14°C° 0 mm 2 mps 733 mmHg 73%
    22:00 +13°C° 0 mm 2 mps 733 mmHg 74%
    23:00 +12°C° 0 mm 2 mps 733 mmHg 75%

    25 September, Wednesday

    Time Temperature Precipitation Wind Pressure Humidity
    00:00 +13°C° 0 mm 2 mps 733 mmHg 74%
    01:00 +13°C° 0 mm 2 mps 733 mmHg 73%
    02:00 +13°C° 0 mm 2 mps 732 mmHg 73%
    03:00 +13°C° 0 mm 2 mps 732 mmHg 73%
    04:00 +13°C° 0 mm 2 mps 732 mmHg 72%
    05:00 +13°C° 0 mm 2 mps 732 mmHg 72%
    06:00 +14°C° 0 mm 2 mps 732 mmHg 72%
    07:00 +14°C° 0 mm 1 mps 732 mmHg 72%
    08:00 +15°C° 0 mm 1 mps 732 mmHg 72%
    09:00 +15°C° 0.1 mm 1 mps 732 mmHg 74%
    10:00 +15°C° 0.1 mm 1 mps 732 mmHg 76%
    11:00 +16°C° 0.1 mm 1 mps 732 mmHg 78%
    12:00 +15°C° 0.2 mm 1 mps 732 mmHg 81%
    13:00 +15°C° 0.2 mm 1 mps 732 mmHg 85%
    14:00 +15°C° 0.2 mm 1 mps 731 mmHg 88%
    15:00 +15°C° 0.1 mm 2 mps 731 mmHg 87%
    16:00 +16°C° 0.1 mm 2 mps 731 mmHg 86%
    17:00 +16°C° 0.1 mm 2 mps 731 mmHg 86%
    18:00 +15°C° 0 mm 2 mps 731 mmHg 87%
    19:00 +15°C° 0 mm 2 mps 731 mmHg 89%
    20:00 +14°C° 0 mm 2 mps 732 mmHg 90%
    21:00 +13°C° 0.2 mm 3 mps 732 mmHg 91%
    22:00 +13°C° 0.2 mm 3 mps 732 mmHg 92%
    23:00 +13°C° 0.2 mm 3 mps 732 mmHg 92%

    26 September, Thursday

    Time Temperature Precipitation Wind Pressure Humidity
    00:00 +13°C° 0.9 mm 3 mps 732 mmHg 93%
    01:00 +13°C° 0.9 mm 3 mps 732 mmHg 93%
    02:00 +13°C° 0.9 mm 3 mps 732 mmHg 93%
    03:00 +13°C° 0.4 mm 3 mps 732 mmHg 93%
    04:00 +13°C° 0.4 mm 3 mps 732 mmHg 93%
    05:00 +12°C° 0.4 mm 3 mps 733 mmHg 93%
    06:00 +12°C° 0.1 mm 3 mps 733 mmHg 91%
    07:00 +12°C° 0.1 mm 3 mps 733 mmHg 89%
    08:00 +12°C° 0.1 mm 3 mps 733 mmHg 87%
    09:00 +14°C° 0 mm 3 mps 734 mmHg 79%
    10:00 +15°C° 0 mm 4 mps 734 mmHg 72%
    11:00 +17°C° 0 mm 4 mps 735 mmHg 64%
    12:00 +18°C° 0 mm 4 mps 734 mmHg 61%
    13:00 +18°C° 0 mm 4 mps 734 mmHg 59%
    14:00 +19°C° 0 mm 5 mps 734 mmHg 56%
    15:00 +18°C° 0.1 mm 4 mps 734 mmHg 59%
    16:00 +18°C° 0.1 mm 4 mps 734 mmHg 62%
    17:00 +17°C° 0.1 mm 3 mps 734 mmHg 65%
    18:00 +16°C° 0 mm 3 mps 734 mmHg 71%
    19:00 +13°C° 0 mm 3 mps 735 mmHg 77%
    20:00 +12°C° 0 mm 3 mps 735 mmHg 84%
    21:00 +12°C° 0 mm 3 mps 735 mmHg 85%
    22:00 +12°C° 0 mm 3 mps 736 mmHg 86%
    23:00 +11°C° 0 mm 3 mps 736 mmHg 87%
    Show more